Regional Weather Roundup
Issued by NWS Green Bay, WI

Home | Current Version | Previous Version | Graphics & Text | Print | Product List | Glossary Off
Versions: 1 2 3 4 5 6 7 8 9 10 11 12 13 14 15 16 17 18 19 20 21 22 23 24 25 26 27 28 29 30 31 32 33 34 35 36 37 38 39 40 41 42 43 44 45 46 47 48 49 50

000
ASUS43 KGRB 052100
RWRGRB

NORTH-CENTRAL AND NORTHEAST WISCONSIN REGIONAL WEATHER ROUNDUP
NATIONAL WEATHER SERVICE GREEN BAY WI
300 PM CST FRI FEB 05 2016

WIZ005-009-010>012-018-019-052200-
NORTH CENTRAL WISCONSIN

CITY           SKY/WX    TMP DP  RH WIND       PRES   REMARKS
IRONWOOD       CLOUDY    27  10  50 S10       30.16S
MANITOWISH WTR NOT AVBL
ARBOR VITAE    NOT AVBL
EAGLE RIVER    NOT AVBL
LAND O LAKES   NOT AVBL
RHINELANDER    SUNNY     26   7  44 W8        30.21S
PHILLIPS       NOT AVBL
ANTIGO         NOT AVBL
TOMAHAWK       NOT AVBL
MERRILL        NOT AVBL
$$

WIZ013-073-052200-
NORTHEAST WISCONSIN

CITY           SKY/WX    TMP DP  RH WIND       PRES   REMARKS
IRON MOUNTAIN  MOSUNNY   26   8  46 W5        30.21F
MARINETTE      SUNNY     27  12  54 W8        30.28S
$$

WIZ017-030-035>037-045-052200-
CENTRAL WISCONSIN

CITY           SKY/WX    TMP DP  RH WIND       PRES   REMARKS
MEDFORD        NOT AVBL
WAUSAU         MOSUNNY   27  11  51 SW5       30.24S
MOSINEE        SUNNY     25  14  63 SW6       30.27F
MARSHFIELD     SUNNY     24  12  60 NW5       30.25F
WISC RAPIDS    SUNNY     26  15  63 SW7       30.30S
STEVENS POINT  NOT AVBL
WAUPACA        NOT AVBL
SHAWANO        NOT AVBL
CLINTONVILLE   SUNNY     30  14  51 SW5       30.29S
WAUTOMA        NOT AVBL
$$

WIZ038-039-048-051-052200-
FOX VALLEY

CITY           SKY/WX    TMP DP  RH WIND       PRES   REMARKS
NWS GREEN BAY  SUNNY     26  14  60 SW7       30.30S
APPLETON       MOSUNNY   28  14  54 SW7       30.27F
OSHKOSH        CLOUDY    26  16  65 SW5       30.31S
FOND DU LAC    CLOUDY    26  15  63 SW7       30.32S
$$

WIZ022-050-052-052200-
EAST CENTRAL WISCONSIN

CITY           SKY/WX    TMP DP  RH WIND       PRES   REMARKS
EPHRAIM        NOT AVBL
STURGEON BAY   SUNNY     25  12  58 W6        30.31S
MANITOWOC      NOT AVBL
SHEBOYGAN      SUNNY     26  13  57 NW8       30.31S
$$

LMZ563-521-522-541>543-052200-
LAKESHORE

STATION/POSITION TIME  TEMP    WIND        PRES    VSBY  WAVE
                       AIR SEA DIR/SP/G                  HT/PER
                 (UTC) (F)     (DEG/KT/KT) (MB)    (MI)  (FT/S)
SHEBOYGAN LKSHOR 2000   26     270/  7/  9 1027.7F
KEWAUNEE LKSHORE 2000   25     280/  5/ 11 1025.4F
ALGOMA MARINA    2011          280/  8/ 10   N/A
CHAMBERS ISLAND  2000   25     210/  7/ 11 1025.7S
MENOMINEE LKSHOR 2000   25     180/  5     1024.3S
$$



USA.gov is the U.S. government's official web portal to all federal, state and local government web resources and services.